WUP659 KJAX-KORL

Flight info

Callsign WUP659
Flight time 0h 31m
Altitude 20000
Route EXBOX2 EXBOX TTHOR TTHOR3
Aircraft E55P/M-SDGRWY/L

Departure

Time 2026-05-04 23:36
Airport Jacksonville International Airport (KJAX)

Arrival

Time 2026-05-05 00:08
Airport Orlando Executive Airport (KORL)
Time Latitude Longitude Altitude Speed Heading
2026-05-04 23:07 30.49776 -81.68224 33 ft 0 kts 69°
2026-05-04 23:29 30.49776 -81.68222 33 ft 0 kts 73°
2026-05-04 23:30 30.49778 -81.68215 33 ft 2 kts 72°
2026-05-04 23:30 30.49801 -81.68206 33 ft 5 kts 306°
2026-05-04 23:30 30.49800 -81.68253 33 ft 6 kts 263°
2026-05-04 23:30 30.49799 -81.68305 33 ft 6 kts 286°
2026-05-04 23:31 30.49837 -81.68333 33 ft 7 kts 341°
2026-05-04 23:31 30.49872 -81.68366 33 ft 7 kts 262°
2026-05-04 23:31 30.49859 -81.68420 33 ft 6 kts 275°
2026-05-04 23:31 30.49897 -81.68444 33 ft 6 kts 349°
2026-05-04 23:32 30.49907 -81.68493 33 ft 7 kts 250°
2026-05-04 23:32 30.49889 -81.68551 33 ft 7 kts 250°
2026-05-04 23:32 30.49871 -81.68612 33 ft 8 kts 250°
2026-05-04 23:32 30.49851 -81.68677 33 ft 9 kts 250°
2026-05-04 23:33 30.49828 -81.68753 33 ft 11 kts 250°
2026-05-04 23:33 30.49798 -81.68851 33 ft 14 kts 251°
2026-05-04 23:33 30.49760 -81.68975 33 ft 18 kts 250°
2026-05-04 23:33 30.49714 -81.69125 33 ft 20 kts 250°
2026-05-04 23:34 30.49667 -81.69279 33 ft 20 kts 250°
2026-05-04 23:34 30.49619 -81.69435 33 ft 20 kts 251°
2026-05-04 23:34 30.49571 -81.69595 33 ft 21 kts 250°
2026-05-04 23:34 30.49521 -81.69755 33 ft 20 kts 250°
2026-05-04 23:35 30.49485 -81.69873 33 ft 10 kts 251°
2026-05-04 23:35 30.49518 -81.69939 33 ft 10 kts 342°
2026-05-04 23:35 30.49589 -81.69968 33 ft 11 kts 340°
2026-05-04 23:35 30.49635 -81.69955 33 ft 2 kts 70°
2026-05-04 23:36 30.49660 -81.69865 33 ft 38 kts 74°
2026-05-04 23:36 30.49845 -81.69263 33 ft 115 kts 70°
2026-05-04 23:36 30.50168 -81.68231 235 ft 155 kts 73°
2026-05-04 23:36 30.50570 -81.66947 767 ft 183 kts 71°
2026-05-04 23:37 30.51067 -81.65599 1738 ft 189 kts 70°
2026-05-04 23:37 30.51626 -81.64105 2078 ft 230 kts 70°
2026-05-04 23:37 30.52281 -81.62287 2063 ft 253 kts 69°
2026-05-04 23:37 30.52963 -81.60371 2617 ft 260 kts 70°
2026-05-04 23:38 30.53523 -81.58425 3302 ft 258 kts 85°
2026-05-04 23:38 30.53133 -81.56435 3919 ft 260 kts 122°
2026-05-04 23:38 30.51895 -81.54936 4567 ft 262 kts 144°
2026-05-04 23:38 30.50265 -81.53993 5172 ft 266 kts 158°
2026-05-04 23:39 30.48515 -81.53246 5814 ft 270 kts 162°
2026-05-04 23:39 30.46715 -81.52564 6473 ft 273 kts 163°
2026-05-04 23:39 30.44910 -81.51904 7103 ft 277 kts 163°
2026-05-04 23:39 30.43039 -81.51213 7769 ft 285 kts 163°
2026-05-04 23:40 30.41133 -81.50515 8619 ft 289 kts 162°
2026-05-04 23:40 30.39231 -81.49815 9448 ft 293 kts 163°
2026-05-04 23:40 30.37288 -81.49103 10244 ft 298 kts 163°
2026-05-04 23:40 30.35300 -81.48374 11066 ft 302 kts 163°
2026-05-04 23:41 30.33306 -81.47643 11869 ft 306 kts 163°
2026-05-04 23:41 30.31253 -81.46891 12659 ft 310 kts 163°
2026-05-04 23:41 30.29206 -81.46143 13424 ft 314 kts 163°
2026-05-04 23:41 30.27111 -81.45375 14133 ft 320 kts 163°
2026-05-04 23:42 30.24892 -81.44564 14309 ft 344 kts 163°
2026-05-04 23:42 30.22596 -81.43722 14891 ft 351 kts 164°
2026-05-04 23:42 30.20268 -81.42870 15744 ft 350 kts 164°
2026-05-04 23:42 30.17954 -81.42027 16516 ft 350 kts 165°
2026-05-04 23:43 30.15614 -81.41171 17118 ft 356 kts 165°
2026-05-04 23:43 30.13252 -81.40311 17722 ft 361 kts 166°
2026-05-04 23:43 30.10844 -81.39436 18326 ft 366 kts 166°
2026-05-04 23:43 30.08389 -81.38538 18952 ft 370 kts 166°
2026-05-04 23:44 30.05921 -81.37640 19565 ft 374 kts 166°
2026-05-04 23:44 30.03456 -81.36744 20001 ft 382 kts 166°
2026-05-04 23:44 30.00844 -81.35798 20069 ft 400 kts 166°
2026-05-04 23:44 29.98104 -81.34802 20074 ft 418 kts 167°
2026-05-04 23:45 29.95306 -81.33787 20068 ft 420 kts 166°
2026-05-04 23:45 29.92554 -81.32784 20059 ft 412 kts 166°
2026-05-04 23:45 29.89838 -81.31795 20060 ft 406 kts 166°
2026-05-04 23:45 29.87106 -81.30802 19837 ft 407 kts 167°
2026-05-04 23:46 29.84411 -81.29833 19470 ft 410 kts 166°
2026-05-04 23:46 29.81690 -81.28842 19068 ft 413 kts 166°
2026-05-04 23:46 29.78983 -81.27866 18620 ft 401 kts 166°
2026-05-04 23:46 29.76337 -81.26907 17979 ft 396 kts 166°
2026-05-04 23:47 29.73741 -81.25967 17265 ft 393 kts 166°
2026-05-04 23:47 29.71136 -81.25028 16541 ft 387 kts 165°
2026-05-04 23:47 29.68586 -81.24105 15829 ft 382 kts 165°
2026-05-04 23:47 29.66076 -81.23182 14966 ft 379 kts 162°
2026-05-04 23:48 29.63598 -81.22234 14061 ft 372 kts 173°
2026-05-04 23:48 29.61086 -81.22424 13207 ft 362 kts 193°
2026-05-04 23:48 29.58615 -81.22659 12342 ft 359 kts 182°
2026-05-04 23:48 29.56139 -81.22676 11374 ft 356 kts 180°
2026-05-04 23:49 29.53715 -81.22588 10530 ft 336 kts 179°
2026-05-04 23:49 29.51448 -81.22488 9831 ft 322 kts 179°
2026-05-04 23:49 29.49222 -81.22369 9100 ft 316 kts 179°
2026-05-04 23:49 29.47115 -81.22258 8497 ft 290 kts 179°
2026-05-04 23:50 29.45114 -81.22150 8079 ft 283 kts 178°
2026-05-04 23:50 29.43187 -81.22041 7998 ft 273 kts 178°
2026-05-04 23:50 29.41293 -81.21941 7997 ft 274 kts 179°
2026-05-04 23:50 29.39337 -81.21828 8007 ft 283 kts 178°
2026-05-04 23:51 29.37366 -81.21722 7844 ft 286 kts 178°
2026-05-04 23:51 29.35427 -81.21632 7599 ft 275 kts 179°
2026-05-04 23:51 29.33539 -81.21554 7343 ft 265 kts 179°
2026-05-04 23:51 29.31718 -81.21479 7090 ft 260 kts 179°
2026-05-04 23:52 29.29911 -81.21406 7007 ft 257 kts 179°
2026-05-04 23:52 29.28112 -81.21331 7003 ft 263 kts 179°
2026-05-04 23:52 29.26217 -81.21252 6999 ft 272 kts 179°
2026-05-04 23:52 29.24336 -81.21167 6993 ft 271 kts 178°
2026-05-04 23:53 29.22453 -81.21035 6992 ft 269 kts 178°
2026-05-04 23:53 29.20596 -81.20908 6992 ft 268 kts 177°
2026-05-04 23:53 29.18693 -81.20781 6995 ft 276 kts 178°
2026-05-04 23:53 29.16763 -81.20650 6994 ft 277 kts 178°
2026-05-04 23:54 29.14840 -81.20520 6988 ft 275 kts 177°
2026-05-04 23:54 29.12946 -81.20392 6988 ft 273 kts 177°
2026-05-04 23:54 29.11020 -81.20299 6822 ft 275 kts 180°
2026-05-04 23:54 29.09119 -81.20293 6512 ft 272 kts 180°
2026-05-04 23:55 29.07257 -81.20277 6191 ft 265 kts 180°
2026-05-04 23:55 29.05418 -81.20261 5867 ft 262 kts 180°
2026-05-04 23:55 29.01724 -81.20473 5239 ft 270 kts 195°
2026-05-04 23:56 28.99915 -81.21048 5028 ft 267 kts 193°
2026-05-04 23:56 28.98169 -81.21579 4990 ft 259 kts 194°
2026-05-04 23:56 28.96441 -81.22102 4988 ft 256 kts 193°
2026-05-04 23:56 28.94698 -81.22632 4987 ft 254 kts 194°
2026-05-04 23:57 28.93029 -81.23135 4911 ft 251 kts 193°
2026-05-04 23:57 28.91302 -81.23651 4684 ft 259 kts 193°
2026-05-04 23:57 28.89578 -81.24145 4428 ft 248 kts 193°
2026-05-04 23:57 28.88117 -81.25113 4174 ft 245 kts 223°
2026-05-04 23:58 28.86930 -81.26473 3940 ft 241 kts 223°
2026-05-04 23:58 28.85759 -81.27815 3694 ft 237 kts 223°
2026-05-04 23:58 28.84586 -81.29176 3450 ft 239 kts 223°
2026-05-04 23:58 28.83429 -81.30525 3213 ft 240 kts 223°
2026-05-04 23:59 28.82268 -81.31892 2975 ft 241 kts 223°
2026-05-04 23:59 28.81096 -81.33276 2736 ft 242 kts 223°
2026-05-04 23:59 28.79920 -81.34666 2496 ft 244 kts 223°
2026-05-04 23:59 28.78737 -81.36069 2256 ft 245 kts 223°
2026-05-05 00:00 28.77558 -81.37479 2029 ft 245 kts 223°
2026-05-05 00:00 28.77184 -81.37932 1998 ft 242 kts 224°
2026-05-05 00:00 28.75275 -81.40238 1973 ft 237 kts 223°
2026-05-05 00:00 28.74159 -81.41587 1967 ft 231 kts 223°
2026-05-05 00:01 28.73008 -81.42853 1956 ft 225 kts 208°
2026-05-05 00:01 28.71499 -81.43332 1995 ft 230 kts 183°
2026-05-05 00:01 28.69900 -81.43593 1978 ft 229 kts 183°
2026-05-05 00:01 28.68347 -81.43850 1976 ft 225 kts 184°
2026-05-05 00:02 28.66803 -81.44105 1976 ft 216 kts 183°
2026-05-05 00:02 28.65319 -81.44351 1986 ft 218 kts 184°
2026-05-05 00:02 28.63804 -81.44605 1987 ft 220 kts 183°
2026-05-05 00:02 28.62275 -81.44860 1981 ft 219 kts 183°
2026-05-05 00:03 28.60768 -81.45115 1981 ft 217 kts 183°
2026-05-05 00:03 28.59298 -81.45346 1976 ft 206 kts 178°
2026-05-05 00:03 28.57919 -81.45311 1974 ft 191 kts 173°
2026-05-05 00:03 28.56607 -81.45260 1861 ft 186 kts 172°
2026-05-05 00:04 28.55332 -81.45222 1687 ft 183 kts 173°
2026-05-05 00:04 28.54066 -81.45184 1510 ft 180 kts 173°
2026-05-05 00:04 28.52859 -81.44984 1328 ft 170 kts 150°
2026-05-05 00:04 28.51957 -81.44201 1226 ft 155 kts 126°
2026-05-05 00:05 28.51376 -81.43211 1157 ft 145 kts 114°
2026-05-05 00:05 28.51024 -81.42207 1175 ft 136 kts 97°
2026-05-05 00:05 28.51306 -81.41180 1073 ft 138 kts 62°
2026-05-05 00:05 28.51770 -81.40292 971 ft 126 kts 66°
2026-05-05 00:06 28.52148 -81.39365 889 ft 144 kts 69°
2026-05-05 00:06 28.52564 -81.38311 882 ft 158 kts 68°
2026-05-05 00:06 28.52998 -81.37255 757 ft 136 kts 68°
2026-05-05 00:06 28.53375 -81.36314 580 ft 128 kts 70°
2026-05-05 00:07 28.53745 -81.35352 418 ft 136 kts 69°
2026-05-05 00:07 28.54106 -81.34401 231 ft 129 kts 69°
2026-05-05 00:07 28.54450 -81.33489 110 ft 115 kts 69°
2026-05-05 00:07 28.54715 -81.32793 110 ft 61 kts 66°
2026-05-05 00:08 28.54849 -81.32439 109 ft 39 kts 67°
2026-05-05 00:08 28.54927 -81.32297 107 ft 13 kts 353°
2026-05-05 00:08 28.54999 -81.32330 108 ft 8 kts 336°
2026-05-05 00:08 28.55029 -81.32357 107 ft 3 kts 280°
2026-05-05 00:09 28.55020 -81.32384 107 ft 3 kts 245°
2026-05-05 00:09 28.55007 -81.32418 107 ft 6 kts 246°
2026-05-05 00:09 28.54985 -81.32476 108 ft 9 kts 248°
2026-05-05 00:09 28.54953 -81.32560 108 ft 13 kts 246°
2026-05-05 00:10 28.54911 -81.32669 108 ft 15 kts 246°
2026-05-05 00:10 28.54867 -81.32785 108 ft 16 kts 246°
2026-05-05 00:10 28.54821 -81.32906 108 ft 16 kts 246°
2026-05-05 00:10 28.54777 -81.33022 108 ft 15 kts 248°
2026-05-05 00:11 28.54736 -81.33129 108 ft 13 kts 246°
2026-05-05 00:11 28.54719 -81.33234 107 ft 14 kts 264°
2026-05-05 00:11 28.54708 -81.33356 106 ft 15 kts 265°
2026-05-05 00:11 28.54695 -81.33478 105 ft 15 kts 264°
2026-05-05 00:12 28.54687 -81.33598 105 ft 13 kts 285°
2026-05-05 00:12 28.54741 -81.33678 105 ft 10 kts 309°
2026-05-05 00:12 28.54758 -81.33735 105 ft 7 kts 309°
2026-05-05 00:12 28.54786 -81.33772 105 ft 5 kts 311°
2026-05-05 00:13 28.54781 -81.33793 105 ft 2 kts 220°
2026-05-05 00:13 28.54773 -81.33800 105 ft 0 kts 218°